Location: Aalen
(48.8330°N, 10.1000°E)
Time: 19:07:51
(UTC+02:00)

Transit 4A - Pass Details

Date: 07 August 2021
Orbit: 871 x 974 km, 66.8° (Epoch: 16 September)

Event Time Altitude Azimuth Distance (km) Brightness Sun altitude
Rises 01:26:31 0° 243° (WSW) 3,477 - -24.7°
Reaches altitude 10° 01:29:12 10° 252° (WSW) 2,532 - -24.7°
Exits shadow 01:29:54 13° 256° (WSW) 2,302 9.8 -24.7°
Maximum altitude 01:34:34 37° 319° (NW) 1,343 9.1 -24.7°
Drops below altitude 10° 01:39:56 10° 26° (NNE) 2,529 11.1 -24.7°
Sets 01:42:38 0° 35° (NE) 3,474 11.8 -24.6°
